User: anonymous   Login
Location: Ch�tillon
(48.8024°N, 2.2935°E)
Time: 12:23:33
(UTC+00:00)
Language:

Okean 1-7 Rocket - Orbit

View from above orbital plane
View from above orbital plane
View from above satellite
View from above satellite

Ground track
Ground track

The orbit data is extracted from the following two-line orbital elements,

1 23318U 94066B   22025.55033086  .00000137  00000-0  15239-4 0  9998
2 23318  82.5395  47.3561 0024961 124.1370 236.2215 14.78948882471425
Epoch (UTC): 25 January 2022 13:12:28
Eccentricity: 0.0024961
inclination: 82.5395°
perigee height: 615 km
apogee height: 650 km
right ascension of ascending node: 47.3561°
argument of perigee: 124.1370°
revolutions per day: 14.78948882
mean anomaly at epoch: 236.2215°
orbit number at epoch: 47142

The dashed part of the orbit path shows where the satellite is in the earth's shadow,  

DLR